Location: Croissy-Beaubourg
(48.8283°N, 2.6696°E)
Time: 00:25:27
(UTC+00:00)

USA 215 - Pass Details

Date: 02 June 2022
Orbit: 1099 x 1108 km, 123.0° (Epoch: 10 June)

Event Time Altitude Azimuth Distance (km) Brightness Sun altitude
Rises 22:02:37 0° 64° (ENE) 3,927 6.2 -15.1°
Reaches altitude 10° 22:06:18 10° 85° (E) 2,966 5.3 -15.4°
Maximum altitude 22:10:07 16° 121° (ESE) 2,535 4.7 -15.6°
Enters shadow 22:10:24 16° 124° (SE) 2,537 4.7 -15.7°
